Location: Casteau
(50.5142°N, 4.0161°E)
Time: 04:45:53
(UTC+00:00)

SPOT 1/Viking Rocket - Pass Details

Date: 18 September 2020
Orbit: 777 x 794 km, 98.5° (Epoch: 29 October)

Event Time Altitude Azimuth Distance (km) Brightness Sun altitude
Exits shadow 21:14:23 61° 282° (WNW) 893 3.9 -29.7°
Drops below altitude 10° 21:19:09 10° 340° (NNW) 2,352 6.8 -30.2°
Sets 21:21:30 0° 344° (NNW) 3,283 7.7 -30.5°
